Location: Fontevrault
(47.1823°N, 0.0493°E)
Time: 09:38:15
(UTC+00:00)

SL-16 R/B - Pass Details

Date: 16 June 2021
Orbit: 842 x 847 km, 71.0° (Epoch: 01 August)

Event Time Altitude Azimuth Distance (km) Brightness Sun altitude
Exits shadow 23:20:31 20° 122° (ESE) 1,849 3.6 -18.9°
Maximum altitude 23:21:56 22° 101° (E) 1,755 3.7 -18.9°
Drops below altitude 10° 23:26:12 10° 52° (NE) 2,472 5.0 -19.0°
Sets 23:29:08 0° 38° (NE) 3,411 6.0 -19.1°
